Stations météo

Publicité
Angers, France (7230): Température de l'air & dewpoint: 11.02.2019 17:00:00 - 17.02.2019 17:00:00 (CET)Angers, France (7230): Température de l'air 5cm: 11.02.2019 17:00:00 - 17.02.2019 17:00:00 (CET)Angers, France (7230): Température de l'air -20cm: 11.02.2019 17:00:00 - 17.02.2019 17:00:00 (CET)Angers, France (7230): Vitesse du vent & gusts: 11.02.2019 17:00:00 - 17.02.2019 17:00:00 (CET)Angers, France (7230): Direction du vent: 11.02.2019 17:00:00 - 17.02.2019 17:00:00 (CET)Angers, France (7230): reduced air pressure: 11.02.2019 17:00:00 - 17.02.2019 17:00:00 (CET)Angers, France (7230): visibility: 11.02.2019 17:00:00 - 17.02.2019 17:00:00 (CET)Angers, France (7230): Ensoleillement: 11.02.2019 17:00:00 - 17.02.2019 17:00:00 (CET)Angers, France (7230): Quantités de précipitations: 11.02.2019 17:00:00 - 17.02.2019 17:00:00 (CET)
Date & Time tt [°C] td [°C] tt 5cm [°C] tt -20cm [°C] ff [km/h] ff [knt] fx [km/h] fx [knt] dd ppp [hPa] vv [km] sd [min] rr [mm]
17.02.2019 17:00:00 16,1 5,1 16,4 7,3 11 6 19 10 SSW 1019,1 20 60 0,0
17.02.2019 16:00:00 16,6 5,2 19,1 7,0 14 8 22 12 WSW 1019,2 20 60 0,0
17.02.2019 15:00:00 16,3 5,3 18,1 6,7 12 6 20 11 SSW 1019,3 19 56 0,0
17.02.2019 14:00:00 15,8 4,2 17,7 6,4 12 6 25 13 SSW 1019,6 20 60 0,0
17.02.2019 13:00:00 15,0 4,4 17,3 6,2 14 8 27 15 SSW 1019,9 20 60 0,0
17.02.2019 12:00:00 13,6 3,6 15,2 6,0 18 10 32 17 S 1020,1 20 60 0,0
17.02.2019 11:00:00 12,1 2,5 11,6 6,0 16 9 29 15 SSW 1019,9 20 60 0,0
17.02.2019 10:00:00 9,3 1,4 6,8 6,0 9 5 14 8 SSE 1019,7 20 60 0,0
17.02.2019 09:00:00 6,2 0,9 2,8 6,1 5 3 21 11 SE 1019,8 20 30 0,0
17.02.2019 08:00:00 6,6 0,5 3,3 6,1 9 5 16 9 S 1019,4 20 0 0,0
17.02.2019 07:00:00 5,5 0,7 2,9 6,2 9 5 16 9 SE 1019,0 20 0 0,0
17.02.2019 06:00:00 4,9 1,0 2,9 6,3 8 4 18 10 SE 1019,4 20 0 0,0
17.02.2019 05:00:00 5,5 1,2 3,9 6,4 11 6 18 10 SE 1019,4 20 0 0,0
17.02.2019 04:00:00 5,9 2,0 3,7 6,5 11 6 16 9 SE 1020,1 20 0 0,0
17.02.2019 03:00:00 6,4 2,5 1,0 6,6 8 4 14 7 SE 1020,7 20 0 0,0
17.02.2019 02:00:00 5,2 3,7 -0,3 6,8 6 4 9 5 SE 1021,4 20 0 0,0
17.02.2019 01:00:00 4,9 2,3 0,1 6,9 3 1 5 3 SE 1021,9 17 0 0,0
17.02.2019 00:00:00 6,1 2,2 1,3 7,0 0 0 6 3 N 1022,2 18 0 0,0
16.02.2019 23:00:00 9,0 3,8 4,7 7,1 6 4 14 8 SE 1022,6 20 0 0,0
16.02.2019 22:00:00 9,9 4,3 7,6 7,1 9 5 16 8 SSE 1022,8 20 0 0,0
16.02.2019 21:00:00 10,8 4,7 7,7 7,2 9 5 16 8 SSE 1022,9 20 0 0,0
16.02.2019 20:00:00 11,8 5,0 5,5 7,2 7 4 10 6 SE 1023,1 20 0 0,0
16.02.2019 19:00:00 13,3 5,0 5,8 7,2 4 2 8 4 SE 1023,3 20 2 0,0
16.02.2019 18:00:00 15,5 5,1 13,1 7,0 5 3 16 8 SE 1023,4 20 55 0,0
16.02.2019 17:00:00 16,8 5,1 17,2 6,8 8 4 19 10 S 1023,7 20 60 0,0
16.02.2019 16:00:00 16,7 5,3 17,5 6,4 8 4 20 11 S 1024,4 20 53 0,0
16.02.2019 15:00:00 16,5 6,9 19,4 6,1 9 5 16 9 S 1025,0 8 60 0,0
16.02.2019 14:00:00 15,6 6,6 16,3 5,7 7 4 17 9 S 1025,8 18 60 0,0
16.02.2019 13:00:00 13,0 5,6 15,0 5,5 10 5 13 7 SE 1026,5 18 60 0,0
16.02.2019 12:00:00 11,7 5,1 11,2 5,3 4 2 8 4 SE 1027,1 18 60 0,0
16.02.2019 11:00:00 8,4 3,2 8,3 5,2 5 3 12 6 ESE 1027,1 19 60 0,0
16.02.2019 10:00:00 5,8 2,1 4,0 5,3 8 5 15 8 SSE 1027,2 16 60 0,2
16.02.2019 09:00:00 1,0 -0,5 -2,6 5,4 0 0 3 2 N 1027,4 9 30 0,0
16.02.2019 08:00:00 0,1 -1,8 -3,0 5,5 0 0 7 4 N 1026,9 8 0 0,0
16.02.2019 07:00:00 2,1 0,2 -2,6 5,6 3 1 12 6 SSE 1026,5 12 0 0,0
16.02.2019 06:00:00 1,1 -1,6 -2,6 5,7 0 0 8 4 N 1026,8 7 0 0,0
16.02.2019 05:00:00 2,9 0,6 -2,9 5,8 5 3 12 7 SSE 1026,6 11 0 0,0
16.02.2019 04:00:00 1,0 -1,2 -2,4 5,9 2 1 6 3 SSE 1026,8 10 0 0,0
16.02.2019 03:00:00 2,1 0,0 -2,2 6,0 3 2 9 5 SSE 1027,0 13 0 0,0
16.02.2019 02:00:00 2,0 0,4 -2,0 6,2 0 0 2 1 N 1027,5 16 0 0,0
16.02.2019 01:00:00 2,5 0,4 -1,5 6,3 0 0 3 1 N 1027,4 17 0 0,0
16.02.2019 00:00:00 3,7 0,2 -0,8 6,5 0 0 6 3 N 1027,2 18 0 0,0
15.02.2019 23:00:00 4,3 0,3 -0,4 6,6 0 0 8 5 N 1027,2 18 0 0,0
15.02.2019 22:00:00 6,5 1,4 0,6 6,7 3 2 6 4 SE 1026,9 20 0 0,0
15.02.2019 21:00:00 6,2 0,9 0,7 6,8 2 1 6 3 SE 1027,0 20 0 0,0
15.02.2019 20:00:00 7,9 0,8 1,6 6,9 0 0 3 2 N 1027,2 20 0 0,0
15.02.2019 19:00:00 11,3 1,2 4,2 6,9 2 1 9 5 SE 1026,7 3,9 1 0,0
15.02.2019 18:00:00 13,8 1,7 12,9 6,7 7 4 13 7 SE 1026,3 20 60 0,0
15.02.2019 17:00:00 15,3 1,8 16,7 6,5 6 4 14 8 SSE 1026,6 15 60 0,0
15.02.2019 16:00:00 15,3 1,0 17,9 6,2 8 5 19 10 SE 1026,7 17 60 0,0
15.02.2019 15:00:00 15,4 -0,8 18,0 5,8 10 5 21 11 SE 1026,9 20 60 0,0
15.02.2019 14:00:00 14,8 0,2 16,9 5,5 9 5 15 8 SE 1027,5 20 60 0,0
15.02.2019 13:00:00 13,1 3,5 13,7 5,2 8 5 16 9 SE 1028,2 20 60 0,0
15.02.2019 12:00:00 10,8 3,3 12,0 5,1 9 5 15 8 SE 1028,8 20 60 0,0
15.02.2019 11:00:00 8,7 3,3 8,5 5,0 5 3 11 6 ESE 1029,0 17 60 0,0
15.02.2019 10:00:00 5,1 3,1 2,1 5,2 5 3 10 6 ESE 1029,3 13 60 0,0
15.02.2019 09:00:00 0,6 -0,3 -4,2 5,2 0 0 3 2 N 1029,4 7 28 0,0
15.02.2019 08:00:00 -0,5 -1,5 -4,0 5,4 0 0 4 2 N 1028,9 3,8 0 0,0
15.02.2019 07:00:00 0,6 -0,3 -3,7 5,5 3 1 6 4 SE 1028,7 9 0 0,0
15.02.2019 06:00:00 0,3 -0,7 -3,9 5,6 0 0 3 2 N 1028,8 7 0 0,0
15.02.2019 05:00:00 0,7 -0,5 -3,5 5,7 0 0 3 2 N 1028,8 11 0 0,0
15.02.2019 04:00:00 0,8 -0,4 -3,3 5,8 3 1 4 2 E 1029,0 14 0 0,0
15.02.2019 03:00:00 0,9 -0,4 -3,4 6,0 0 0 5 3 N 1029,1 13 0 0,0
15.02.2019 02:00:00 1,4 0,1 -2,9 6,1 0 0 3 2 N 1029,3 13 0 0,0
15.02.2019 01:00:00 1,5 -0,7 -2,5 6,2 0 0 4 2 N 1029,5 8 0 0,0
15.02.2019 00:00:00 3,0 0,7 -1,4 6,4 0 0 3 2 N 1029,4 18 0 0,0
14.02.2019 23:00:00 3,8 1,3 -1,2 6,5 0 0 4 2 N 1029,6 16 0 0,0
14.02.2019 22:00:00 4,4 0,9 -0,1 6,6 0 0 6 4 N 1029,4 20 0 0,0
14.02.2019 21:00:00 7,6 1,6 0,6 6,7 5 3 8 4 ESE 1029,6 20 0 0,0
14.02.2019 20:00:00 9,8 1,9 3,4 6,8 5 3 10 5 ESE 1029,7 20 0 0,0
14.02.2019 19:00:00 10,8 2,6 3,9 6,7 3 1 10 6 ESE 1029,6 20 0 0,0
14.02.2019 18:00:00 12,8 2,9 11,9 6,6 7 4 18 10 ESE 1029,3 20 60 0,0
14.02.2019 17:00:00 13,9 3,9 15,0 6,4 10 5 17 9 E 1029,3 20 60 0,0
14.02.2019 16:00:00 14,5 3,3 16,5 6,1 10 6 19 11 ESE 1029,7 20 60 0,0
14.02.2019 15:00:00 14,1 3,5 16,1 5,7 9 5 19 10 ESE 1030,3 20 60 0,0
14.02.2019 14:00:00 13,0 3,9 14,4 5,4 8 4 16 9 ESE 1031,2 20 60 0,0
14.02.2019 13:00:00 11,2 3,2 12,3 5,2 9 5 16 9 SE 1031,9 20 60 0,0
14.02.2019 12:00:00 9,1 2,4 10,5 5,0 8 4 14 7 ESE 1032,6 19 60 0,0
14.02.2019 11:00:00 7,0 2,1 6,5 5,0 5 3 10 5 E 1032,9 18 60 0,0
14.02.2019 10:00:00 4,2 1,4 1,3 5,1 4 2 11 6 ESE 1033,0 12 60 0,2
14.02.2019 09:00:00 1,6 0,9 -4,4 5,2 2 1 7 4 ESE 1032,9 10 26 0,0
14.02.2019 08:00:00 -0,1 -1,0 -4,8 5,3 4 2 5 3 ESE 1032,5 6 0 0,0
14.02.2019 07:00:00 0,3 -0,8 -4,3 5,5 0 0 6 3 N 1032,3 6 0 0,0
14.02.2019 06:00:00 1,1 0,2 -3,3 5,6 4 2 8 5 ESE 1032,3 12 0 0,0
14.02.2019 05:00:00 -0,1 -1,2 -4,2 5,7 3 1 7 4 E 1032,3 5 0 0,0
14.02.2019 04:00:00 0,9 -0,3 -3,8 5,8 3 1 5 3 ESE 1032,2 9 0 0,0
14.02.2019 03:00:00 1,2 -0,1 -3,5 6,0 0 0 6 3 N 1032,5 8 0 0,0
14.02.2019 02:00:00 1,6 0,0 -2,7 6,1 2 1 5 3 ENE 1032,6 8 0 0,0
14.02.2019 01:00:00 2,1 0,2 -2,0 6,2 2 1 5 3 ENE 1033,0 14 0 0,0
14.02.2019 00:00:00 4,0 0,9 0,6 6,4 4 2 8 4 E 1032,9 20 0 0,0
13.02.2019 23:00:00 4,9 1,4 0,6 6,4 4 2 10 5 E 1033,0 20 0 0,0
13.02.2019 22:00:00 5,1 1,0 0,8 6,5 4 2 9 5 ENE 1032,8 20 0 0,0
13.02.2019 21:00:00 6,4 1,5 3,5 6,6 6 4 17 9 E 1032,5 20 0 0,0
13.02.2019 20:00:00 7,2 1,3 4,2 6,6 9 5 19 10 E 1032,6 20 0 0,0
13.02.2019 19:00:00 7,5 1,1 3,6 6,7 8 4 14 8 ENE 1032,7 20 0 0,0
13.02.2019 18:00:00 9,4 1,3 7,5 6,6 9 5 18 10 ENE 1032,5 20 57 0,0
13.02.2019 17:00:00 10,5 1,8 12,3 6,4 13 7 21 11 ENE 1032,2 20 60 0,0
13.02.2019 16:00:00 11,3 1,0 14,2 6,2 12 7 22 12 ENE 1032,4 20 60 0,0
13.02.2019 15:00:00 10,9 1,9 13,7 5,9 13 7 22 12 ENE 1032,7 20 60 0,0
13.02.2019 14:00:00 10,2 1,6 12,0 5,7 12 7 21 12 E 1033,4 20 60 0,0
13.02.2019 13:00:00 9,0 1,6 10,6 5,5 12 6 24 13 E 1034,4 20 60 0,0
13.02.2019 12:00:00 7,9 1,5 9,1 5,4 10 5 19 11 ESE 1035,0 20 60 0,0
13.02.2019 11:00:00 6,0 1,5 6,4 5,4 10 6 21 12 ESE 1035,3 20 60 0,0
13.02.2019 10:00:00 4,2 1,4 0,1 5,5 10 5 16 9 ESE 1035,5 20 60 0,2
13.02.2019 09:00:00 -0,2 -1,0 -4,2 5,6 3 1 5 3 E 1035,6 6 24 0,0
13.02.2019 08:00:00 -0,1 -1,1 -4,3 5,7 2 1 6 3 E 1035,4 7 0 0,0
13.02.2019 07:00:00 0,8 -0,2 -3,7 5,8 3 1 6 4 E 1035,4 14 0 0,0
13.02.2019 06:00:00 0,8 -0,2 -3,8 5,9 3 1 9 5 E 1035,5 13 0 0,0
13.02.2019 05:00:00 -0,4 -2,0 -3,9 6,0 2 1 4 2 ENE 1035,4 3,5 0 0,0
13.02.2019 04:00:00 1,2 -0,4 -2,3 6,2 0 0 10 5 N 1035,6 10 0 0,0
13.02.2019 03:00:00 3,0 1,7 -3,2 6,3 6 3 12 6 ESE 1035,8 20 0 0,0
13.02.2019 02:00:00 0,4 -0,9 -3,1 6,4 3 1 6 3 ESE 1035,9 7 0 0,0
13.02.2019 01:00:00 1,1 -0,4 -2,6 6,6 0 0 6 3 N 1036,0 8 0 0,0
13.02.2019 00:00:00 1,2 -0,4 -2,2 6,7 4 2 5 3 N 1036,2 6 0 0,0
12.02.2019 23:00:00 2,3 0,4 -1,5 6,8 0 0 2 1 N 1036,3 10 0 0,0
12.02.2019 22:00:00 2,7 0,4 -1,2 6,9 0 0 2 1 N 1036,2 19 0 0,0
12.02.2019 21:00:00 4,0 1,0 -0,3 7,0 0 0 0 0 N 1036,2 18 0 0,0
12.02.2019 20:00:00 6,0 1,1 0,7 7,1 2 1 6 4 E 1036,4 20 0 0,0
12.02.2019 19:00:00 7,6 1,6 1,6 7,1 4 2 5 3 NE 1036,0 20 0 0,0
12.02.2019 18:00:00 9,5 2,1 8,1 7,0 4 2 8 4 NE 1035,4 20 56 0,0
12.02.2019 17:00:00 10,8 2,6 15,3 6,8 4 2 12 7 NNE 1035,3 20 60 0,0
12.02.2019 16:00:00 11,2 3,0 15,8 6,6 7 4 14 7 N 1035,6 20 60 0,0
12.02.2019 15:00:00 12,2 3,2 16,0 6,2 3 1 9 5 NNW 1035,7 20 60 0,0
12.02.2019 14:00:00 10,7 2,3 15,4 6,0 5 3 9 5 N 1036,1 20 60 0,0
12.02.2019 13:00:00 10,5 3,3 13,1 5,8 4 2 10 5 ESE 1036,7 20 60 0,0
12.02.2019 12:00:00 9,1 2,9 9,8 5,7 3 2 9 5 S 1037,1 20 60 0,0
12.02.2019 11:00:00 6,2 2,1 6,2 5,7 5 3 11 6 SE 1036,9 20 60 0,0
12.02.2019 10:00:00 3,0 2,3 -0,1 5,8 6 4 11 6 SE 1036,8 13 57 0,0
12.02.2019 09:00:00 -0,6 -1,3 -4,7 5,9 0 0 4 2 N 1037,1 12 23 0,0
12.02.2019 08:00:00 -1,6 -2,6 -5,0 6,1 2 1 4 2 NW 1036,7 9 0 0,0
12.02.2019 07:00:00 -1,4 -2,4 -4,7 6,2 0 0 0 0 N 1036,1 6 0 0,0
12.02.2019 06:00:00 -1,2 -2,3 -4,6 6,3 0 0 2 1 N 1036,1 7 0 0,0
12.02.2019 05:00:00 -0,3 -1,3 -3,7 6,5 0 0 3 2 N 1035,6 11 0 0,0
12.02.2019 04:00:00 -0,8 -1,9 -3,8 6,6 0 0 3 1 N 1035,6 10 0 0,0
12.02.2019 03:00:00 -0,5 -1,8 -3,5 6,7 0 0 0 0 N 1035,5 8 0 0,0
12.02.2019 02:00:00 0,1 -1,2 -3,5 6,9 2 1 5 3 N 1035,7 11 0 0,0
12.02.2019 01:00:00 0,5 -1,3 -3,0 7,0 0 0 6 3 N 1035,2 12 0 0,0
12.02.2019 00:00:00 1,6 0,0 -2,4 7,2 0 0 4 2 N 1034,9 20 0 0,0
11.02.2019 23:00:00 2,3 -0,1 -1,9 7,3 0 0 3 2 N 1034,5 20 0 0,0
11.02.2019 22:00:00 3,6 0,6 -1,0 7,4 0 0 5 3 N 1034,2 20 0 0,0
11.02.2019 21:00:00 4,5 0,8 -0,5 7,6 3 2 6 3 NE 1033,7 20 0 0,0
11.02.2019 20:00:00 5,5 0,8 0,8 7,6 0 0 5 3 N 1033,0 20 0 0,0
11.02.2019 19:00:00 7,4 1,2 2,4 7,6 4 2 16 9 N 1032,2 20 0 0,0
11.02.2019 18:00:00 9,2 1,8 8,5 7,5 10 5 21 12 NNE 1031,2 20 30 0,0
11.02.2019 17:00:00 10,2 3,0 10,4 7,4 14 7 24 13 NNW 1030,2 20 21 0,0

tt = Température de l'air
td = dewpoint
tt 5cm = Température de l'air 5cm
tt -20cm = Température de l'air -20cm
ff = Vitesse du vent
fx = gusts
dd = Direction du vent
ppp = reduced air pressure
vv = visibility
sd = Ensoleillement
rr = Quantités de précipitations

stations d'obs. à proximité